Location: Unspecified
(58.7730°N, 5.8460°E)
Time: 04:05:49
(UTC+02:00)

Resurs 1-4 Rocket - Visible Passes

Search period start: 28 April 2015 00:00
Search period end: 08 May 2015 00:00
Orbit: 799 x 815 km, 98.4° (Epoch: 26 April)

Date Brightness Start Highest point End Pass type
(mag) Time Alt. Az. Time Alt. Az. Time Alt. Az.
28 Apr 4.5 04:00:03 10° NE 04:03:47 20° E 04:07:39 10° SE visible
29 Apr 4.7 03:36:21 10° NE 03:38:51 14° E 03:41:33 10° ESE visible
30 Apr 3.4 04:50:21 10° NNE 04:55:20 41° E 05:00:20 10° SSE visible
01 May 4.0 04:26:03 10° NNE 04:30:36 29° E 04:35:12 10° SSE visible
02 May 4.5 04:01:56 10° NE 04:05:47 20° E 04:09:44 10° SE visible
03 May 4.7 03:38:11 10° NE 03:40:51 14° E 03:43:43 10° ESE visible
05 May 3.9 04:27:58 10° NNE 04:32:35 30° E 04:37:14 10° SSE visible
06 May 4.4 04:03:50 10° NE 04:07:46 21° E 04:11:49 10° SE visible
07 May 4.7 03:40:01 10° NE 03:42:51 15° E 03:45:52 10° ESE visible
